[[{"header":{"parameterUnit":"m.s-1","parameterCategory":1,"la1":30.2991,"la2":30.254,"lo1":-89.0895,"lo2":-89.0444,"dy":0.0017,"dx":0.0017,"nx":28,"ny":28,"refTime":"2023-09-04T21:00:00:Z","depth":0,"parameterNumber":2,"parameterNumberName":"U-component_of_WINDS"},"data":[0,0,0,0,0,0,0,0,0,0,0,0,0,0,0,0,0,0,0,0,0,0,0,0,0,0,0,0,0,0,0,0,0,0,0,0,0,0,0,0,0,0,0,0,0,0,0,0,0,0,0,0,0,0,0,0,0,0,-5.0895,-5.0896,0,-5.0977,-5.0977,-5.0978,-5.0977,-5.0976,-5.0975,-5.0974,-5.1052,-5.1055,-5.1058,0,0,0,0,0,0,0,0,0,0,0,0,0,-5.0735,-5.0738,-5.0895,-5.0896,-5.0897,-5.0976,-5.0978,-5.0979,-5.0977,-5.0976,-5.0975,-5.0974,-5.1051,-5.1055,-5.1058,0,0,0,0,0,0,0,0,0,0,0,0,0,-5.0809,-5.0739,-5.0895,-5.0906,-5.0908,-5.0976,-5.0978,-5.0979,-5.0978,-5.0976,-5.0974,-5.0973,-5.105,-5.1054,-5.1059,-5.1119,0,0,-5.1073,-5.1075,0,0,0,0,0,0,0,0,-5.0805,-5.0815,-5.0904,-5.0906,-5.0908,-5.0965,-5.0949,-5.1026,-5.0978,-5.0951,-5.0974,-5.0972,-5.1024,-5.1031,-5.1049,-5.1123,-5.1126,-5.1073,-5.1076,-5.1078,-5.1079,0,0,0,0,0,0,0,-5.08,-5.0811,-5.0927,-5.0905,-5.0908,-5.0906,-5.0915,-5.0964,-5.0995,-5.0953,-5.0954,-5.0963,-5.1025,-5.1045,-5.1051,-5.1127,-5.1073,-5.1077,-5.108,-5.1082,-5.1254,-5.1256,0,0,0,0,0,0,-5.0793,-5.0807,-5.0925,-5.093,-5.0852,-5.091,-5.092,-5.0948,-5.0995,-5.1001,-5.0965,-5.0963,-5.1038,-5.1046,-5.1054,-5.1127,-5.1078,-5.1082,-5.1085,-5.1252,-5.1255,-5.1257,0,0,0,0,0,0,-5.0789,-5.0803,-5.0921,-5.0869,-5.0883,-5.0915,-5.0947,-5.0951,-5.0971,-5.1004,-5.1009,-5.098,-5.1037,-5.1047,-5.1103,-5.113,-5.1084,-5.1088,-5.125,-5.1253,-5.1256,-5.1274,0,0,0,0,0,0,-5.0785,-5.0802,-5.0826,-5.0869,-5.0886,-5.0971,-5.0948,-5.0954,-5.0979,-5.0978,-5.1019,-5.1024,-5.1036,-5.1096,-5.1108,-5.1135,-5.1092,-5.1248,-5.1252,-5.1255,-5.1271,-5.1277,-5.1282,0,0,0,0,0,-5.0779,-5.0827,-5.0828,-5.0842,-5.0917,-5.0972,-5.0982,-5.0997,-5.0982,-5.1005,-5.1027,-5.1023,-5.1126,-5.1102,-5.1115,-5.1144,-5.1246,-5.1251,-5.1254,-5.1269,-5.1276,-5.1282,0,0,0,0,0,0,-5.0784,-5.0833,-5.0834,-5.0898,-5.0931,-5.0972,-5.1002,-5.1004,-5.1041,-5.1038,-5.1053,-5.1062,-5.1118,-5.1137,-5.111,-5.1205,-5.1184,-5.1191,-5.119,-5.1197,-5.1203,-5.1196,-5.1096,0,0,0,0,0,-5.0793,-5.0835,-5.0875,-5.0927,-5.0944,-5.0971,-5.0995,-5.1004,-5.1038,-5.1052,-5.1077,-5.1109,-5.1149,-5.1175,-5.1213,-5.1275,-5.1283,-5.1301,-5.1307,-5.1311,-5.1316,-5.1349,-5.1358,-5.127,-5.127,-5.127,0,0,-5.0811,-5.0843,-5.0868,-5.0929,-5.0956,-5.0998,-5.0982,-5.1027,-5.1058,-5.1058,-5.1113,-5.1133,-5.117,-5.1229,-5.1256,-5.1246,-5.1342,-5.1316,-5.1319,-5.1322,-5.1354,-5.1363,-5.137,-5.1273,-5.1272,-5.1272,0,0,-5.0865,-5.0894,-5.0941,-5.0969,-5.1011,-5.1028,-5.104,-5.1081,-5.1095,-5.115,-5.1152,-5.1188,-5.1256,-5.1282,-5.1304,-5.137,-5.1368,-5.1382,-5.141,-5.1442,-5.1449,-5.1455,-5.1477,-5.1485,-5.1388,-5.1388,-5.1388,0,-5.0881,-5.0946,-5.0964,-5.101,-5.1036,-5.1041,-5.1087,-5.1113,-5.1164,-5.1182,-5.1171,-5.1257,-5.1282,-5.1347,-5.1363,-5.1382,-5.1394,-5.1376,-5.1447,-5.1453,-5.1459,-5.1481,-5.1489,-5.1389,-5.1389,-5.1389,-5.1389,0,-5.0963,-5.1008,-5.1041,-5.1092,-5.1123,-5.1168,-5.1192,-5.122,-5.1227,-5.1245,-5.1301,-5.1332,-5.1377,-5.1393,-5.14,-5.1459,-5.1452,-5.1444,-5.1423,-5.1469,-5.1489,-5.1497,-5.1391,-5.1391,-5.139,-5.139,0,0,-5.102,-5.1083,-5.1095,-5.1118,-5.1166,-5.12,-5.1246,-5.1291,-5.1314,-5.135,-5.1388,-5.1446,-5.144,-5.1465,-5.1474,-5.1503,-5.1552,-5.1492,-5.1493,-5.15,-5.1619,-5.1623,-5.1632,-5.1552,-5.1554,-5.1555,-5.1615,0,-5.1078,-5.1161,-5.1179,-5.125,-5.1291,-5.1297,-5.1337,-5.1369,-5.1388,-5.1424,-5.1445,-5.1485,-5.1474,-5.149,-5.1519,-5.154,-5.1576,-5.1536,-5.1585,-5.1586,-5.1573,-5.1643,-5.1647,-5.1702,-5.1623,-5.1624,-5.1625,0,-5.1156,-5.1196,-5.1271,-5.1313,-5.1331,-5.1367,-5.141,-5.1445,-5.1482,-5.1494,-5.1523,-5.153,-5.1577,-5.1555,-5.1619,-5.1591,-5.1613,-5.1627,-5.1629,-5.1632,-5.1607,-5.1646,-5.172,-5.1728,-5.1638,-5.1637,-5.1636,0,-5.1188,-5.126,-5.1315,-5.1335,-5.1386,-5.1411,-5.1433,-5.1469,-5.1495,-5.1533,-5.155,-5.1592,-5.1614,-5.1646,-5.1664,-5.1647,-5.1725,-5.1706,-5.1735,-5.1734,-5.1749,-5.1747,-5.1825,-5.1766,-5.1766,-5.1766,-5.1766,0,-5.1249,-5.1294,-5.133,-5.1363,-5.1414,-5.1434,-5.1483,-5.1505,-5.1537,-5.1574,-5.1582,-5.1616,-5.1638,-5.1674,-5.1689,-5.1738,-5.1749,-5.1758,-5.1761,-5.1756,-5.1755,-5.1768,-5.1764,-5.1768,-5.1767,-5.1767,-5.1767,0,-5.1292,-5.1318,-5.1378,-5.1423,-5.1435,-5.147,-5.1507,-5.1539,-5.1559,-5.1605,-5.1617,-5.1647,-5.1691,-5.1713,-5.1766,-5.1776,-5.1832,-5.1833,-5.1819,-5.182,-5.1847,-5.1844,-5.1935,-5.1948,-5.1882,-5.1883,-5.1883,0,-5.1329,-5.1364,-5.1413,-5.1439,-5.1463,-5.1504,-5.1532,-5.1554,-5.1581,-5.1627,-5.1653,-5.1698,-5.1734,-5.1803,-5.1829,-5.187,-5.1871,-5.1901,-5.1877,-5.1872,-5.187,-5.1867,-5.187,-5.1904,-5.1905,-5.1905,-5.1906,0,-5.139,-5.1402,-5.1442,-5.1487,-5.152,-5.1556,-5.1591,-5.1612,-5.1639,-5.167,-5.1716,-5.1744,-5.18,-5.1844,-5.1887,-5.1908,-5.1911,-5.1913,-5.1922,-5.1916,-5.1906,-5.1911,-5.1829,-5.191,-5.191,-5.191,-5.1909,-5.1909,-5.143,-5.1462,-5.1502,-5.1546,-5.1576,-5.1609,-5.1641,-5.1666,-5.1705,-5.1753,-5.1763,-5.1811,-5.1847,-5.1906,-5.1929,-5.1966,-5.1959,-5.1972,-5.1975,-5.1977,-5.1978,-5.1903,-5.1974,-5.1974,-5.1974,-5.1974,-5.1974,0,-5.149,-5.1517,-5.1558,-5.1608,-5.1643,-5.1646,-5.1685,-5.1713,-5.1756,-5.1791,-5.1827,-5.1879,-5.1922,-5.1952,-5.1995,-5.2019,-5.2021,-5.2029,-5.2026,-5.2031,-5.1982,-5.197,-5.2027,-5.2027,-5.2027,-5.2027,-5.2027,-5.2026,-5.1526,-5.1579,-5.1596,-5.1663,-5.1689,-5.1738,-5.176,-5.179,-5.1818,-5.1876,-5.1912,-5.1933,-5.1965,-5.2011,-5.205,-5.2057,-5.2072,-5.208,-5.2087,-5.204,-5.2035,-5.2029,-5.2017,-5.2083,-5.2083,-5.2133,-5.2133,-5.2133]},{"header":{"parameterUnit":"m.s-1","parameterCategory":1,"la1":30.2991,"la2":30.254,"lo1":-89.0895,"lo2":-89.0444,"dy":0.0017,"dx":0.0017,"nx":28,"ny":28,"refTime":"2023-09-04T21:00:00:Z","depth":0,"parameterNumber":3,"parameterNumberName":"V-component_of_WINDS"},"data":[0,0,0,0,0,0,0,0,0,0,0,0,0,0,0,0,0,0,0,0,0,0,0,0,0,0,0,0,0,0,0,0,0,0,0,0,0,0,0,0,0,0,0,0,0,0,0,0,0,0,0,0,0,0,0,0,0,0,4.2622,4.2622,0,4.2666,4.2667,4.2667,4.2657,4.2657,4.2656,4.2655,4.2696,4.2698,4.2699,0,0,0,0,0,0,0,0,0,0,0,0,0,4.2526,4.2528,4.2622,4.2622,4.2623,4.2666,4.2667,4.2667,4.2657,4.2656,4.2656,4.2655,4.2695,4.2697,4.27,0,0,0,0,0,0,0,0,0,0,0,0,0,4.2568,4.2528,4.2622,4.2624,4.2624,4.2666,4.2667,4.2667,4.2658,4.2656,4.2655,4.2654,4.2694,4.2697,4.27,4.2741,0,0,4.2708,4.271,0,0,0,0,0,0,0,0,4.2566,4.2572,4.2623,4.2623,4.2624,4.2655,4.2648,4.2692,4.2658,4.2645,4.2655,4.2654,4.2683,4.2687,4.2697,4.2743,4.2745,4.2709,4.271,4.2711,4.2712,0,0,0,0,0,0,0,4.2563,4.257,4.2639,4.2623,4.2624,4.2621,4.2626,4.2656,4.267,4.2646,4.2645,4.2651,4.2683,4.2695,4.2698,4.2746,4.2709,4.2711,4.2713,4.2714,4.2829,4.283,0,0,0,0,0,0,4.256,4.2568,4.2638,4.2641,4.2592,4.2624,4.2629,4.2646,4.267,4.2672,4.2652,4.265,4.2691,4.2695,4.27,4.275,4.2711,4.2714,4.2716,4.2827,4.2829,4.283,0,0,0,0,0,0,4.2558,4.2566,4.2636,4.2604,4.2613,4.2627,4.2646,4.2648,4.266,4.2674,4.2676,4.2661,4.269,4.2696,4.2732,4.2751,4.2715,4.2718,4.2826,4.2828,4.283,4.2851,0,0,0,0,0,0,4.2555,4.2566,4.2582,4.2605,4.2614,4.2668,4.2647,4.265,4.2665,4.2663,4.2684,4.2686,4.2689,4.2728,4.2734,4.2755,4.272,4.2824,4.2827,4.2829,4.2849,4.2854,4.2858,0,0,0,0,0,4.2552,4.2585,4.2583,4.2592,4.2636,4.2669,4.2675,4.2679,4.2666,4.2683,4.2693,4.2685,4.2748,4.2731,4.2739,4.276,4.2823,4.2826,4.2829,4.2847,4.2853,4.2858,0,0,0,0,0,0,4.2563,4.2588,4.2586,4.2628,4.2647,4.2668,4.2688,4.2685,4.2707,4.2704,4.2708,4.2712,4.2749,4.2758,4.2739,4.2802,4.2784,4.2788,4.2794,4.28,4.2805,4.2801,4.2722,0,0,0,0,0,4.2571,4.2598,4.2618,4.2653,4.2662,4.2674,4.2689,4.2691,4.271,4.2717,4.2729,4.2747,4.2771,4.2786,4.2809,4.2851,4.2855,4.2869,4.2874,4.2877,4.2881,4.2904,4.2911,4.2841,4.2841,4.2841,0,0,4.2586,4.2603,4.262,4.2655,4.267,4.2697,4.2681,4.2709,4.2728,4.2721,4.2756,4.2766,4.2786,4.2825,4.2842,4.2833,4.2902,4.2881,4.2884,4.2886,4.2908,4.2915,4.292,4.2843,4.2842,4.2842,0,0,4.2628,4.2644,4.2675,4.2691,4.2715,4.2722,4.273,4.2752,4.2759,4.2794,4.279,4.2812,4.2853,4.2868,4.288,4.293,4.2924,4.2937,4.2961,4.2983,4.2989,4.2993,4.3011,4.3017,4.2941,4.2941,4.2941,0,4.2644,4.2685,4.2691,4.2721,4.2737,4.2734,4.2765,4.2779,4.2808,4.2819,4.2809,4.2861,4.2874,4.2917,4.2929,4.294,4.2948,4.2934,4.2988,4.2993,4.2997,4.3014,4.302,4.2942,4.2942,4.2942,4.2942,0,4.2703,4.2732,4.2754,4.2784,4.2803,4.2833,4.2843,4.2861,4.2862,4.287,4.2906,4.2923,4.2949,4.2959,4.2959,4.3002,4.2996,4.2987,4.2968,4.3005,4.3021,4.3027,4.2944,4.2944,4.2943,4.2943,0,0,4.2751,4.2787,4.2795,4.2809,4.2835,4.2857,4.2887,4.2914,4.2929,4.295,4.2974,4.301,4.3003,4.3017,4.3019,4.3039,4.3077,4.3027,4.3028,4.3036,4.3125,4.3131,4.3138,4.3074,4.3075,4.3076,4.3123,0,4.2795,4.285,4.2858,4.2905,4.2932,4.293,4.2956,4.2975,4.2984,4.3007,4.3016,4.3042,4.303,4.3039,4.3058,4.3068,4.3095,4.3065,4.3096,4.3097,4.309,4.3147,4.3153,4.3196,4.3129,4.313,4.3131,0,4.2853,4.2878,4.2929,4.2953,4.2964,4.2988,4.3014,4.3037,4.3057,4.3063,4.308,4.308,4.311,4.3092,4.3133,4.3113,4.3126,4.3133,4.3135,4.3137,4.3116,4.315,4.321,4.3217,4.3141,4.314,4.3139,0,4.2884,4.2929,4.2966,4.2978,4.3007,4.3023,4.3036,4.3056,4.3072,4.3095,4.3105,4.3131,4.3144,4.3163,4.317,4.3156,4.3211,4.3193,4.3216,4.3215,4.3226,4.3225,4.3289,4.3236,4.3236,4.3236,4.3236,0,4.2931,4.2963,4.298,4.3002,4.3037,4.3045,4.3079,4.3091,4.3109,4.3133,4.3133,4.3155,4.3163,4.3186,4.3191,4.3225,4.3231,4.3235,4.3236,4.3235,4.3235,4.3243,4.324,4.3238,4.3237,4.3237,4.3237,0,4.297,4.2983,4.3023,4.3048,4.3055,4.308,4.31,4.3122,4.3132,4.3162,4.3169,4.3184,4.3212,4.3221,4.3253,4.3257,4.3296,4.3295,4.3289,4.3289,4.3312,4.3309,4.3383,4.3393,4.3333,4.3334,4.3334,0,4.3,4.3024,4.3052,4.307,4.3083,4.311,4.3128,4.3137,4.3155,4.3181,4.3199,4.3227,4.325,4.3294,4.3307,4.3332,4.3331,4.3355,4.3334,4.3332,4.333,4.3329,4.3331,4.3358,4.3359,4.3359,4.336,0,4.305,4.3056,4.3082,4.3111,4.3132,4.3154,4.3176,4.3189,4.3201,4.3221,4.3251,4.3269,4.3303,4.3331,4.3357,4.3368,4.3366,4.3366,4.3373,4.3371,4.3367,4.337,4.3299,4.3364,4.3364,4.3363,4.3363,4.3363,4.3085,4.3107,4.3131,4.316,4.3178,4.3199,4.322,4.3234,4.3259,4.3289,4.3292,4.3324,4.3344,4.338,4.3393,4.3417,4.341,4.3419,4.3421,4.3424,4.3425,4.3365,4.3421,4.3421,4.3421,4.3421,4.3421,0,4.3136,4.3152,4.3179,4.321,4.3233,4.3231,4.3255,4.3274,4.3302,4.3322,4.3346,4.3379,4.3406,4.3422,4.3449,4.3465,4.3464,4.3472,4.347,4.3473,4.343,4.3422,4.3472,4.3472,4.3472,4.3472,4.3472,4.3472,4.3165,4.3202,4.3211,4.3257,4.3272,4.3304,4.3318,4.3337,4.3354,4.3392,4.3415,4.3426,4.3444,4.3473,4.3497,4.3501,4.351,4.3518,4.3521,4.3481,4.3476,4.3471,4.3463,4.3521,4.3521,4.3562,4.3562,4.3563]}]]